Location: ????????
(60.4333°N, 46.4710°E)
Time: 04:44:47
(UTC+00:00)

CSL-04 DEB - Pass Details

Date: 25 November 2020
Orbit: 546 x 627 km, 98.8° (Epoch: 19 January)

Event Time Altitude Azimuth Distance (km) Brightness Sun altitude
Exits shadow 14:51:19 26° 20° (NNE) 1,154 5.7 -19.3°
Maximum altitude 14:53:35 88° 107° (ESE) 584 4.3 -19.6°
Drops below altitude 10° 14:57:43 10° 200° (SSW) 1,909 7.4 -20.1°
Sets 14:59:54 0° 200° (SSW) 2,819 8.3 -20.4°
